| time (UTC) | temp F | wind direction | speed MPH | gust MPH | rain 1hr in | rain 24hr in | rain mn in | humidity % | barometer mb |
| 20260905042103 | 54 | 283 | 1.0 | 11.0 | 0.03 | 0.00 | 0.66 | 98 | 1002.6 |
| 20260905041603 | 53 | 219 | 0.0 | 13.0 | 0.03 | 0.00 | 0.65 | 98 | 1002.3 |
| 20260905041102 | 53 | 265 | 0.0 | 13.0 | 0.04 | 0.00 | 0.65 | 98 | 1002.2 |
| 20260905040602 | 53 | 279 | 0.0 | 13.0 | 0.03 | 0.00 | 0.63 | 98 | 1002.0 |
| 20260905035602 | 53 | 228 | 0.0 | 13.0 | 0.06 | 0.00 | 0.63 | 98 | 1002.1 |
| 20260905035101 | 53 | 196 | 0.0 | 13.0 | 0.06 | 0.00 | 0.63 | 98 | 1002.6 |
| 20260905034044 | 53 | 252 | 0.0 | 13.0 | 0.06 | 0.00 | 0.63 | 98 | 1002.0 |
| 20260905033543 | 53 | 222 | 0.0 | 13.0 | 0.06 | 0.00 | 0.63 | 98 | 1002.0 |
| 20260905033042 | 53 | 286 | 0.0 | 13.0 | 0.07 | 0.00 | 0.63 | 98 | 1001.8 |
| 20260905032541 | 53 | 358 | 0.0 | 13.0 | 0.07 | 0.00 | 0.63 | 98 | 1002.1 |
| 20260905032041 | 53 | 337 | 0.0 | 13.0 | 0.06 | 0.00 | 0.62 | 98 | 1002.2 |
| 20260905031540 | 53 | 271 | 0.0 | 13.0 | 0.07 | 0.00 | 0.62 | 98 | 1001.9 |
| 20260905030525 | 53 | 246 | 0.0 | 13.0 | 0.05 | 0.00 | 0.60 | 98 | 1002.0 |
| 20260905030025 | 53 | 257 | 0.0 | 13.0 | 0.04 | 0.00 | 0.59 | 98 | 1001.6 |
| 20260905025525 | 53 | 261 | 0.0 | 13.0 | 0.01 | 0.00 | 0.56 | 98 | 1001.9 |
| 20260905025025 | 53 | 232 | 0.0 | 13.0 | 0.01 | 0.00 | 0.56 | 98 | 1001.7 |
| 20260905024525 | 53 | 226 | 0.0 | 13.0 | 0.01 | 0.00 | 0.56 | 98 | 1001.5 |
| 20260905024025 | 53 | 175 | 0.0 | 13.0 | 0.01 | 0.00 | 0.56 | 98 | 1002.0 |
| 20260905023010 | 53 | 258 | 0.0 | 13.0 | 0.01 | 0.00 | 0.55 | 98 | 1001.4 |
| 20260905022509 | 53 | 258 | 0.0 | 13.0 | 0.01 | 0.00 | 0.55 | 98 | 1001.7 |
| 20260905022009 | 53 | 240 | 0.0 | 13.0 | 0.01 | 0.00 | 0.55 | 98 | 1001.4 |
| 20260905021509 | 53 | 242 | 0.0 | 13.0 | 0.01 | 0.00 | 0.55 | 98 | 1001.4 |
| 20260905021008 | 53 | 205 | 0.0 | 13.0 | 0.00 | 0.00 | 0.55 | 98 | 1001.8 |
| 20260905020507 | 53 | 267 | 0.0 | 13.0 | 0.00 | 0.00 | 0.55 | 98 | 1001.4 |
| 20260905020007 | 53 | 268 | 0.0 | 13.0 | 0.01 | 0.00 | 0.55 | 98 | 1000.9 |
| 20260905015507 | 53 | 271 | 0.0 | 13.0 | 0.01 | 0.00 | 0.55 | 98 | 1001.2 |
| 20260905014452 | 53 | 291 | 0.0 | 13.0 | 0.01 | 0.00 | 0.55 | 98 | 1000.9 |
| 20260905013952 | 53 | 182 | 0.0 | 13.0 | 0.01 | 0.00 | 0.55 | 98 | 1001.2 |
| 20260905013451 | 53 | 188 | 0.0 | 13.0 | 0.02 | 0.00 | 0.55 | 98 | 1001.4 |
| 20260905012950 | 53 | 184 | 0.0 | 13.0 | 0.01 | 0.00 | 0.54 | 97 | 1001.0 |
| 20260905012449 | 53 | 194 | 0.0 | 13.0 | 0.02 | 0.00 | 0.54 | 97 | 1001.1 |
| 20260905011949 | 53 | 271 | 0.0 | 13.0 | 0.04 | 0.00 | 0.54 | 97 | 1000.8 |
| 20260905011449 | 53 | 188 | 0.0 | 13.0 | 0.05 | 0.00 | 0.54 | 97 | 1001.0 |
| 20260905010949 | 53 | 188 | 0.0 | 13.0 | 0.06 | 0.00 | 0.54 | 97 | 1001.1 |
| 20260905010449 | 53 | 264 | 0.0 | 13.0 | 0.08 | 0.00 | 0.54 | 97 | 1001.1 |
| 20260905005949 | 53 | 307 | 0.0 | 13.0 | 0.11 | 0.00 | 0.54 | 97 | 1000.6 |
| 20260905005449 | 53 | 266 | 0.0 | 13.0 | 0.12 | 0.00 | 0.53 | 97 | 1000.9 |
| 20260905004948 | 53 | 260 | 0.0 | 13.0 | 0.17 | 0.00 | 0.53 | 97 | 1000.9 |
| 20260905004448 | 53 | 262 | 0.0 | 13.0 | 0.22 | 0.00 | 0.53 | 97 | 1000.8 |
| 20260905003432 | 53 | 191 | 0.0 | 13.0 | 0.27 | 0.00 | 0.52 | 97 | 1000.9 |
| 20260905002931 | 53 | 203 | 0.0 | 13.0 | 0.29 | 0.00 | 0.52 | 97 | 1000.9 |
| 20260905001916 | 53 | 222 | 0.0 | 13.0 | 0.28 | 0.00 | 0.51 | 97 | 1001.0 |
| 20260905001415 | 53 | 265 | 0.0 | 13.0 | 0.27 | 0.00 | 0.49 | 97 | 1000.5 |
| 20260905000915 | 54 | 263 | 0.0 | 13.0 | 0.26 | 0.00 | 0.48 | 97 | 1000.6 |
| 20260905000414 | 54 | 323 | 0.0 | 13.0 | 0.23 | 0.00 | 0.46 | 97 | 1000.6 |
| 20260904235913 | 54 | 294 | 0.0 | 13.0 | 0.22 | 0.00 | 0.44 | 97 | 1000.5 |
| 20260904235413 | 54 | 304 | 0.0 | 13.0 | 0.20 | 0.00 | 0.41 | 97 | 1000.7 |
| 20260904234913 | 54 | 268 | 1.0 | 13.0 | 0.15 | 0.00 | 0.37 | 97 | 1000.6 |
| 20260904234412 | 54 | 86 | 0.0 | 13.0 | 0.11 | 0.00 | 0.32 | 97 | 1000.9 |
| 20260904233911 | 54 | 85 | 0.0 | 13.0 | 0.06 | 0.00 | 0.27 | 97 | 1000.6 |
| 20260904232855 | 54 | 84 | 0.0 | 13.0 | 0.06 | 0.00 | 0.22 | 97 | 1000.5 |
| 20260904232354 | 54 | 85 | 0.0 | 13.0 | 0.11 | 0.00 | 0.22 | 97 | 1000.2 |
| 20260904231853 | 54 | 83 | 0.0 | 13.0 | 0.15 | 0.00 | 0.22 | 97 | 1000.5 |
| 20260904231352 | 54 | 84 | 0.0 | 13.0 | 0.16 | 0.00 | 0.22 | 97 | 1000.6 |
| 20260904230337 | 54 | 84 | 0.0 | 13.0 | 0.22 | 0.00 | 0.22 | 97 | 1000.4 |
| 20260904225836 | 54 | 84 | 0.0 | 13.0 | 0.22 | 0.00 | 0.21 | 97 | 1000.3 |
| 20260904225335 | 54 | 83 | 0.0 | 13.0 | 0.24 | 0.00 | 0.21 | 97 | 1000.5 |
| 20260904224834 | 54 | 85 | 0.0 | 13.0 | 0.27 | 0.00 | 0.21 | 97 | 1000.5 |
| 20260904224333 | 54 | 86 | 0.0 | 13.0 | 0.27 | 0.00 | 0.20 | 96 | 1000.5 |
| 20260904223833 | 54 | 83 | 0.0 | 13.0 | 0.27 | 0.00 | 0.20 | 96 | 1000.4 |
| 20260904223332 | 54 | 83 | 0.0 | 13.0 | 0.26 | 0.00 | 0.18 | 96 | 1000.1 |
| 20260904222832 | 54 | 83 | 0.0 | 13.0 | 0.23 | 0.00 | 0.15 | 96 | 1000.4 |
| 20260904222331 | 54 | 82 | 0.0 | 13.0 | 0.20 | 0.00 | 0.12 | 96 | 1000.3 |
| 20260904221830 | 54 | 84 | 0.0 | 13.0 | 0.16 | 0.00 | 0.08 | 96 | 1000.3 |
| 20260904221329 | 54 | 83 | 0.0 | 13.0 | 0.13 | 0.00 | 0.06 | 96 | 1000.3 |
| 20260904220829 | 54 | 83 | 0.0 | 13.0 | 0.12 | 0.00 | 0.04 | 96 | 1000.5 |
| 20260904220328 | 54 | 84 | 0.0 | 13.0 | 0.08 | 0.00 | 0.00 | 96 | 1000.4 |
| 20260904215827 | 54 | 84 | 0.0 | 13.0 | 0.06 | 0.00 | 0.27 | 96 | 1000.3 |
| 20260904215326 | 54 | 83 | 0.0 | 13.0 | 0.05 | 0.00 | 0.26 | 96 | 1000.5 |
| 20260904213755 | 54 | 89 | 0.0 | 13.0 | 0.00 | 0.00 | 0.21 | 96 | 1000.3 |
| 20260904213254 | 54 | 90 | 0.0 | 13.0 | 0.00 | 0.00 | 0.20 | 96 | 1000.3 |
| 20260904212753 | 54 | 91 | 0.0 | 13.0 | 0.00 | 0.00 | 0.20 | 96 | 1000.2 |
| 20260904212253 | 54 | 91 | 0.0 | 13.0 | 0.00 | 0.00 | 0.20 | 96 | 1000.5 |
| 20260904211752 | 54 | 91 | 0.0 | 13.0 | 0.00 | 0.00 | 0.20 | 95 | 1000.2 |
| 20260904211252 | 54 | 91 | 0.0 | 13.0 | 0.00 | 0.00 | 0.20 | 95 | 1000.3 |
| 20260904210752 | 54 | 91 | 0.0 | 13.0 | 0.00 | 0.00 | 0.20 | 95 | 1000.3 |
| 20260904210252 | 55 | 91 | 0.0 | 13.0 | 0.00 | 0.00 | 0.20 | 95 | 999.9 |
| 20260904205752 | 55 | 90 | 0.0 | 13.0 | 0.00 | 0.00 | 0.20 | 95 | 1000.0 |
| 20260904205251 | 55 | 92 | 0.0 | 13.0 | 0.00 | 0.00 | 0.20 | 95 | 1000.0 |
| 20260904204751 | 55 | 87 | 0.0 | 13.0 | 0.00 | 0.00 | 0.20 | 95 | 1000.1 |
| 20260904204251 | 55 | 86 | 0.0 | 13.0 | 0.00 | 0.00 | 0.20 | 95 | 1000.2 |
| 20260904203750 | 55 | 89 | 0.0 | 13.0 | 0.00 | 0.00 | 0.20 | 95 | 1000.2 |
| 20260904203250 | 55 | 239 | 0.0 | 13.0 | 0.00 | 0.00 | 0.20 | 95 | 999.9 |
| 20260904202750 | 55 | 263 | 0.0 | 13.0 | 0.00 | 0.00 | 0.20 | 95 | 1000.3 |
| 20260904201217 | 55 | 243 | 0.0 | 13.0 | 0.00 | 0.00 | 0.20 | 95 | 1000.1 |
| 20260904200717 | 55 | 238 | 0.0 | 13.0 | 0.00 | 0.00 | 0.20 | 95 | 1000.1 |
| 20260904200216 | 55 | 236 | 0.0 | 13.0 | 0.00 | 0.00 | 0.20 | 95 | 1000.1 |
| 20260904195715 | 55 | 238 | 0.0 | 13.0 | 0.00 | 0.00 | 0.20 | 95 | 1000.0 |
| 20260904194144 | 55 | 237 | 0.0 | 13.0 | 0.00 | 0.00 | 0.20 | 95 | 1000.1 |
| 20260904193643 | 55 | 237 | 0.0 | 13.0 | 0.00 | 0.00 | 0.20 | 95 | 999.8 |
| 20260904193143 | 55 | 236 | 0.0 | 13.0 | 0.00 | 0.00 | 0.20 | 95 | 1000.0 |
| 20260904192643 | 55 | 236 | 0.0 | 13.0 | 0.00 | 0.00 | 0.20 | 95 | 1000.1 |
| 20260904192143 | 55 | 237 | 0.0 | 13.0 | 0.00 | 0.00 | 0.20 | 95 | 1000.2 |
| 20260904191642 | 55 | 237 | 0.0 | 13.0 | 0.00 | 0.00 | 0.20 | 94 | 999.6 |
| 20260904191142 | 55 | 237 | 0.0 | 13.0 | 0.00 | 0.00 | 0.20 | 94 | 1000.2 |
| 20260904190125 | 55 | 236 | 0.0 | 13.0 | 0.00 | 0.00 | 0.20 | 93 | 1000.1 |
| 20260904185625 | 55 | 237 | 0.0 | 13.0 | 0.00 | 0.00 | 0.20 | 93 | 1000.4 |
| 20260904184609 | 55 | 240 | 0.0 | 13.0 | 0.00 | 0.00 | 0.20 | 92 | 1000.2 |
| 20260904184109 | 55 | 241 | 0.0 | 13.0 | 0.00 | 0.00 | 0.20 | 92 | 1000.1 |
| 20260904183608 | 55 | 242 | 0.0 | 13.0 | 0.00 | 0.00 | 0.20 | 92 | 1000.2 |
| 20260904183107 | 55 | 245 | 0.0 | 13.0 | 0.00 | 0.00 | 0.20 | 91 | 1000.1 |
| 20260904182606 | 56 | 237 | 0.0 | 13.0 | 0.00 | 0.00 | 0.20 | 91 | 1000.2 |
| 20260904182106 | 56 | 236 | 0.0 | 13.0 | 0.00 | 0.00 | 0.20 | 91 | 1000.2 |
| 20260904181606 | 56 | 238 | 0.0 | 13.0 | 0.00 | 0.00 | 0.20 | 91 | 1000.2 |
| 20260904181106 | 56 | 244 | 0.0 | 13.0 | 0.00 | 0.00 | 0.20 | 91 | 1000.0 |
| 20260904180605 | 56 | 273 | 0.0 | 13.0 | 0.00 | 0.00 | 0.20 | 90 | 1000.2 |
| 20260904175550 | 57 | 263 | 0.0 | 13.0 | 0.00 | 0.00 | 0.20 | 89 | 1000.1 |
| 20260904175049 | 57 | 279 | 0.0 | 13.0 | 0.00 | 0.00 | 0.20 | 89 | 999.9 |
| 20260904174033 | 58 | 223 | 0.0 | 13.0 | 0.00 | 0.00 | 0.20 | 89 | 1000.0 |
| 20260904173532 | 58 | 223 | 0.0 | 13.0 | 0.00 | 0.00 | 0.20 | 89 | 1000.0 |
| 20260904173032 | 58 | 245 | 0.0 | 13.0 | 0.00 | 0.00 | 0.20 | 89 | 999.9 |
| 20260904172532 | 58 | 223 | 0.0 | 13.0 | 0.00 | 0.00 | 0.20 | 88 | 999.8 |
| 20260904172032 | 58 | 223 | 0.0 | 13.0 | 0.00 | 0.00 | 0.20 | 88 | 1000.0 |
| 20260904171532 | 58 | 222 | 0.0 | 13.0 | 0.00 | 0.00 | 0.20 | 88 | 1000.0 |
| 20260904171032 | 58 | 222 | 0.0 | 13.0 | 0.00 | 0.00 | 0.20 | 88 | 999.9 |
| 20260904170530 | 58 | 226 | 0.0 | 13.0 | 0.00 | 0.00 | 0.20 | 88 | 1000.1 |
| 20260904170030 | 58 | 226 | 0.0 | 13.0 | 0.00 | 0.00 | 0.20 | 88 | 1000.2 |
| 20260904165530 | 59 | 226 | 0.0 | 13.0 | 0.00 | 0.00 | 0.20 | 88 | 1000.1 |
| 20260904165029 | 59 | 226 | 0.0 | 13.0 | 0.00 | 0.00 | 0.20 | 87 | 1000.0 |
| 20260904164528 | 59 | 229 | 0.0 | 13.0 | 0.00 | 0.00 | 0.20 | 87 | 1000.0 |
| 20260904163512 | 59 | 191 | 0.0 | 13.0 | 0.00 | 0.00 | 0.20 | 87 | 999.9 |
| 20260904163011 | 59 | 165 | 0.0 | 13.0 | 0.00 | 0.00 | 0.20 | 87 | 1000.1 |
| 20260904162511 | 58 | 165 | 0.0 | 13.0 | 0.00 | 0.00 | 0.20 | 87 | 1000.0 |
| 20260904162011 | 58 | 163 | 0.0 | 13.0 | 0.00 | 0.00 | 0.20 | 87 | 1000.0 |
| 20260904161511 | 59 | 224 | 0.0 | 13.0 | 0.00 | 0.00 | 0.20 | 87 | 1000.0 |
| 20260904161010 | 59 | 224 | 0.0 | 13.0 | 0.00 | 0.00 | 0.20 | 87 | 1000.3 |
| 20260904160509 | 59 | 240 | 0.0 | 13.0 | 0.00 | 0.00 | 0.20 | 87 | 1000.1 |
| 20260904160008 | 59 | 241 | 0.0 | 13.0 | 0.00 | 0.00 | 0.20 | 87 | 999.9 |
| 20260904155507 | 59 | 241 | 0.0 | 13.0 | 0.00 | 0.00 | 0.20 | 87 | 1000.3 |
| 20260904155007 | 59 | 241 | 0.0 | 13.0 | 0.00 | 0.00 | 0.20 | 87 | 1000.0 |
| 20260904153434 | 58 | 196 | 0.0 | 13.0 | 0.00 | 0.00 | 0.20 | 89 | 1000.2 |
| 20260904152933 | 58 | 208 | 0.0 | 13.0 | 0.00 | 0.00 | 0.20 | 89 | 999.9 |
| 20260904152432 | 58 | 220 | 0.0 | 13.0 | 0.00 | 0.00 | 0.20 | 90 | 1000.0 |
| 20260904151932 | 58 | 203 | 0.0 | 13.0 | 0.00 | 0.00 | 0.20 | 90 | 1000.3 |
| 20260904151432 | 58 | 229 | 0.0 | 13.0 | 0.00 | 0.00 | 0.20 | 90 | 1000.4 |
| 20260904145859 | 58 | 222 | 0.0 | 13.0 | 0.00 | 0.00 | 0.20 | 90 | 1000.2 |
| 20260904145359 | 58 | 214 | 0.0 | 13.0 | 0.00 | 0.00 | 0.20 | 90 | 1000.2 |
| 20260904144859 | 58 | 230 | 0.0 | 13.0 | 0.00 | 0.00 | 0.20 | 91 | 1000.4 |
| 20260904144358 | 58 | 234 | 0.0 | 13.0 | 0.00 | 0.00 | 0.20 | 91 | 1000.3 |
| 20260904143857 | 58 | 234 | 0.0 | 13.0 | 0.00 | 0.00 | 0.20 | 90 | 1000.7 |
| 20260904143357 | 58 | 222 | 0.0 | 13.0 | 0.00 | 0.00 | 0.20 | 90 | 1000.7 |
| 20260904142857 | 58 | 239 | 0.0 | 13.0 | 0.00 | 0.00 | 0.20 | 90 | 1000.6 |
| 20260904142356 | 58 | 239 | 0.0 | 13.0 | 0.00 | 0.00 | 0.20 | 89 | 1000.8 |
| 20260904141342 | 58 | 154 | 0.0 | 13.0 | 0.00 | 0.00 | 0.20 | 87 | 1001.0 |
| 20260904140840 | 58 | 201 | 0.0 | 13.0 | 0.00 | 0.00 | 0.20 | 87 | 1001.1 |
| 20260904140339 | 58 | 210 | 0.0 | 13.0 | 0.00 | 0.00 | 0.20 | 85 | 1000.5 |
| 20260904135838 | 59 | 227 | 0.0 | 13.0 | 0.00 | 0.00 | 0.20 | 84 | 1000.8 |
| 20260904135339 | 59 | 88 | 0.0 | 13.0 | 0.00 | 0.00 | 0.20 | 83 | 1000.7 |
| 20260904134839 | 60 | 168 | 1.0 | 13.0 | 0.00 | 0.00 | 0.20 | 81 | 1000.8 |
| 20260904133821 | 60 | 157 | 0.0 | 13.0 | 0.00 | 0.00 | 0.20 | 81 | 1000.9 |
| 20260904133320 | 60 | 111 | 1.0 | 13.0 | 0.00 | 0.00 | 0.20 | 80 | 1001.0 |
| 20260904132819 | 60 | 132 | 0.0 | 13.0 | 0.00 | 0.00 | 0.20 | 80 | 1001.1 |
| 20260904132319 | 60 | 85 | 0.0 | 13.0 | 0.00 | 0.00 | 0.20 | 80 | 1000.9 |
| 20260904131819 | 61 | 222 | 0.0 | 13.0 | 0.00 | 0.00 | 0.20 | 79 | 1000.7 |
| 20260904131318 | 61 | 116 | 0.0 | 13.0 | 0.00 | 0.00 | 0.20 | 80 | 1001.1 |
| 20260904130818 | 60 | 205 | 0.0 | 13.0 | 0.00 | 0.00 | 0.20 | 82 | 1001.1 |
| 20260904125801 | 60 | 218 | 0.0 | 13.0 | 0.00 | 0.00 | 0.20 | 81 | 1001.0 |
| 20260904125305 | 60 | 207 | 0.0 | 13.0 | 0.00 | 0.00 | 0.20 | 81 | 1000.9 |
| 20260904124800 | 60 | 163 | 0.0 | 13.0 | 0.00 | 0.00 | 0.20 | 82 | 1001.0 |
| 20260904123744 | 60 | 236 | 0.0 | 13.0 | 0.00 | 0.00 | 0.20 | 83 | 1001.2 |
| 20260904123243 | 60 | 216 | 0.0 | 13.0 | 0.00 | 0.00 | 0.20 | 82 | 1001.6 |
| 20260904121711 | 60 | 236 | 0.0 | 13.0 | 0.00 | 0.00 | 0.20 | 82 | 1001.7 |
| 20260904121210 | 60 | 202 | 0.0 | 13.0 | 0.00 | 0.00 | 0.20 | 81 | 1001.4 |
| 20260904120710 | 60 | 203 | 0.0 | 13.0 | 0.00 | 0.00 | 0.20 | 81 | 1002.0 |
| 20260904120210 | 60 | 195 | 0.0 | 13.0 | 0.00 | 0.00 | 0.20 | 80 | 1001.8 |
| 20260904115710 | 60 | 257 | 1.0 | 13.0 | 0.00 | 0.00 | 0.20 | 79 | 1001.8 |
| 20260904115209 | 60 | 195 | 0.0 | 13.0 | 0.00 | 0.00 | 0.20 | 80 | 1001.6 |
| 20260904114153 | 60 | 222 | 0.0 | 13.0 | 0.00 | 0.00 | 0.20 | 80 | 1001.5 |
| 20260904113653 | 60 | 169 | 0.0 | 13.0 | 0.00 | 0.00 | 0.20 | 81 | 1001.9 |
| 20260904112637 | 60 | 117 | 0.0 | 13.0 | 0.00 | 0.00 | 0.20 | 84 | 1002.1 |
| 20260904112136 | 60 | 257 | 0.0 | 13.0 | 0.00 | 0.00 | 0.20 | 83 | 1002.1 |
| 20260904111636 | 60 | 206 | 0.0 | 13.0 | 0.00 | 0.00 | 0.20 | 83 | 1001.8 |
| 20260904111135 | 60 | 154 | 1.0 | 13.0 | 0.00 | 0.00 | 0.20 | 84 | 1001.8 |
| 20260904105602 | 60 | 212 | 1.0 | 13.0 | 0.00 | 0.00 | 0.20 | 85 | 1002.8 |
| 20260904105101 | 59 | 166 | 0.0 | 13.0 | 0.00 | 0.00 | 0.20 | 86 | 1002.8 |
| 20260904104601 | 59 | 54 | 0.0 | 13.0 | 0.00 | 0.00 | 0.20 | 87 | 1002.6 |
| 20260904104100 | 59 | 206 | 0.0 | 13.0 | 0.00 | 0.00 | 0.20 | 87 | 1003.0 |
| 20260904103600 | 59 | 185 | 1.0 | 13.0 | 0.00 | 0.00 | 0.20 | 88 | 1002.5 |
| 20260904103059 | 59 | 196 | 0.0 | 13.0 | 0.00 | 0.00 | 0.20 | 90 | 1002.8 |
| 20260904102559 | 59 | 184 | 0.0 | 13.0 | 0.00 | 0.00 | 0.20 | 89 | 1003.3 |
| 20260904102058 | 59 | 227 | 0.0 | 13.0 | 0.00 | 0.00 | 0.20 | 88 | 1002.7 |
| 20260904101558 | 59 | 216 | 0.0 | 13.0 | 0.00 | 0.00 | 0.20 | 87 | 1002.6 |
| 20260904100542 | 60 | 208 | 0.0 | 13.0 | 0.00 | 0.00 | 0.20 | 84 | 1002.9 |
| 20260904100041 | 60 | 200 | 0.0 | 13.0 | 0.00 | 0.00 | 0.20 | 82 | 1002.6 |
| 20260904095541 | 60 | 228 | 1.0 | 13.0 | 0.00 | 0.00 | 0.20 | 81 | 1002.8 |
| 20260904095040 | 60 | 204 | 1.0 | 13.0 | 0.00 | 0.00 | 0.20 | 81 | 1002.6 |
| 20260904094540 | 60 | 235 | 1.0 | 13.0 | 0.00 | 0.00 | 0.20 | 82 | 1002.9 |
| 20260904094039 | 60 | 217 | 1.0 | 13.0 | 0.00 | 0.00 | 0.20 | 81 | 1003.0 |
| 20260904093538 | 60 | 174 | 0.0 | 13.0 | 0.00 | 0.00 | 0.20 | 82 | 1003.3 |
| 20260904093038 | 60 | 229 | 0.0 | 13.0 | 0.00 | 0.00 | 0.20 | 83 | 1003.3 |
| 20260904092537 | 60 | 246 | 1.0 | 13.0 | 0.00 | 0.00 | 0.20 | 84 | 1003.5 |
| 20260904092036 | 60 | 154 | 1.0 | 13.0 | 0.00 | 0.00 | 0.20 | 84 | 1003.3 |
| 20260904091536 | 60 | 206 | 0.0 | 13.0 | 0.00 | 0.00 | 0.20 | 84 | 1003.3 |
| 20260904091036 | 59 | 208 | 2.0 | 13.0 | 0.00 | 0.00 | 0.20 | 83 | 1003.3 |
| 20260904090535 | 59 | 201 | 2.0 | 13.0 | 0.00 | 0.00 | 0.20 | 83 | 1003.5 |
| 20260904090034 | 60 | 228 | 1.0 | 13.0 | 0.00 | 0.00 | 0.20 | 85 | 1003.6 |
| 20260904085533 | 59 | 206 | 1.0 | 13.0 | 0.00 | 0.00 | 0.20 | 85 | 1003.2 |
| 20260904085032 | 59 | 215 | 1.0 | 13.0 | 0.00 | 0.00 | 0.20 | 85 | 1003.0 |
| 20260904084532 | 59 | 233 | 0.0 | 13.0 | 0.00 | 0.00 | 0.20 | 86 | 1003.4 |
| 20260904084031 | 59 | 221 | 1.0 | 13.0 | 0.00 | 0.00 | 0.20 | 86 | 1003.3 |
| 20260904083531 | 59 | 206 | 3.0 | 13.0 | 0.00 | 0.00 | 0.20 | 86 | 1003.6 |
| 20260904083030 | 59 | 224 | 1.0 | 13.0 | 0.00 | 0.00 | 0.20 | 88 | 1003.5 |
| 20260904082529 | 59 | 223 | 1.0 | 13.0 | 0.00 | 0.00 | 0.20 | 90 | 1003.4 |
| 20260904082029 | 58 | 210 | 0.0 | 13.0 | 0.00 | 0.00 | 0.20 | 90 | 1003.3 |
| 20260904081013 | 58 | 333 | 1.0 | 13.0 | 0.00 | 0.00 | 0.20 | 91 | 1003.5 |
| 20260904080513 | 58 | 204 | 2.0 | 13.0 | 0.00 | 0.00 | 0.20 | 91 | 1003.8 |
| 20260904080013 | 58 | 274 | 0.0 | 13.0 | 0.00 | 0.00 | 0.20 | 92 | 1003.4 |
| 20260904075513 | 58 | 338 | 1.0 | 13.0 | 0.00 | 0.00 | 0.20 | 92 | 1003.5 |
| 20260904075012 | 57 | 275 | 0.0 | 13.0 | 0.00 | 0.00 | 0.20 | 93 | 1003.2 |
| 20260904074511 | 57 | 229 | 1.0 | 13.0 | 0.00 | 0.00 | 0.20 | 93 | 1003.7 |
| 20260904074010 | 57 | 217 | 0.0 | 13.0 | 0.00 | 0.00 | 0.20 | 94 | 1003.5 |
| 20260904073510 | 57 | 198 | 1.0 | 13.0 | 0.00 | 0.00 | 0.20 | 94 | 1004.1 |
| 20260904073009 | 56 | 206 | 0.0 | 13.0 | 0.00 | 0.00 | 0.20 | 95 | 1003.9 |
| 20260904072508 | 56 | 234 | 1.0 | 13.0 | 0.00 | 0.00 | 0.20 | 95 | 1004.0 |
| 20260904072008 | 56 | 149 | 0.0 | 13.0 | 0.00 | 0.00 | 0.20 | 95 | 1004.2 |
| 20260904071508 | 56 | 253 | 1.0 | 13.0 | 0.00 | 0.00 | 0.20 | 95 | 1004.0 |
| 20260904071007 | 56 | 192 | 0.0 | 13.0 | 0.00 | 0.00 | 0.20 | 95 | 1004.0 |
| 20260904070507 | 56 | 219 | 0.0 | 13.0 | 0.00 | 0.00 | 0.20 | 95 | 1004.0 |
| 20260904065450 | 56 | 179 | 1.0 | 13.0 | 0.00 | 0.00 | 0.20 | 95 | 1004.5 |
| 20260904064950 | 56 | 197 | 0.0 | 13.0 | 0.00 | 0.00 | 0.20 | 95 | 1004.3 |
| 20260904064449 | 56 | 182 | 0.0 | 13.0 | 0.00 | 0.00 | 0.20 | 96 | 1004.7 |
| 20260904063948 | 55 | 197 | 1.0 | 13.0 | 0.00 | 0.00 | 0.20 | 95 | 1004.7 |
| 20260904063448 | 55 | 113 | 0.0 | 13.0 | 0.00 | 0.00 | 0.20 | 95 | 1004.8 |
| 20260904062948 | 55 | 197 | 0.0 | 13.0 | 0.00 | 0.00 | 0.20 | 95 | 1004.5 |
| 20260904062447 | 55 | 258 | 0.0 | 13.0 | 0.00 | 0.00 | 0.20 | 95 | 1004.2 |
| 20260904061946 | 55 | 190 | 1.0 | 13.0 | 0.00 | 0.00 | 0.20 | 95 | 1004.7 |
| 20260904061446 | 55 | 214 | 0.0 | 13.0 | 0.00 | 0.00 | 0.20 | 95 | 1004.7 |
| 20260904055357 | 55 | 194 | 2.0 | 13.0 | 0.00 | 0.00 | 0.20 | 96 | 1004.8 |
| 20260904054341 | 55 | 236 | 1.0 | 13.0 | 0.00 | 0.00 | 0.20 | 96 | 1004.7 |
| 20260904053840 | 55 | 220 | 0.0 | 13.0 | 0.00 | 0.00 | 0.20 | 96 | 1004.5 |
| 20260904053339 | 55 | 204 | 1.0 | 13.0 | 0.00 | 0.00 | 0.20 | 96 | 1004.9 |
| 20260904052838 | 55 | 187 | 1.0 | 13.0 | 0.00 | 0.00 | 0.20 | 96 | 1004.2 |
| 20260904052337 | 55 | 185 | 1.0 | 13.0 | 0.00 | 0.00 | 0.20 | 96 | 1004.8 |
| 20260904051321 | 55 | 205 | 0.0 | 13.0 | 0.00 | 0.00 | 0.20 | 97 | 1004.6 |
| 20260904050820 | 55 | 198 | 0.0 | 13.0 | 0.00 | 0.00 | 0.20 | 97 | 1004.6 |
| 20260904050320 | 55 | 284 | 0.0 | 13.0 | 0.00 | 0.00 | 0.20 | 97 | 1004.6 |
| 20260904045306 | 55 | 218 | 0.0 | 13.0 | 0.00 | 0.00 | 0.20 | 97 | 1004.7 |
| 20260904044803 | 55 | 191 | 0.0 | 13.0 | 0.00 | 0.00 | 0.20 | 97 | 1004.5 |
| 20260904043231 | 55 | 233 | 0.0 | 13.0 | 0.00 | 0.00 | 0.20 | 97 | 1005.0 |
| 20260904042730 | 55 | 225 | 0.0 | 13.0 | 0.00 | 0.00 | 0.20 | 97 | 1005.1 |